�N����,����,�~����,�C��,���x,�C��,����,���ϕ���,�ő�u�ԕ���,�ő厞����,���˗�,�I�_���x,�n�����x,�ő啗���N��,DTYPE
"21/07/02","00:10",0.0,22.0,93.2,1004.1,331.0,1.1,1.8,325.0,0.00,20.9,23.3,"00:05:44",1
"21/07/02","00:20",0.0,21.9,93.3,1003.8,297.2,0.8,1.3,270.6,0.00,20.8,23.3,"00:10:32",1
"21/07/02","00:30",0.0,21.9,93.4,1003.8,318.2,0.8,1.6,318.5,0.00,20.8,23.3,"00:27:28",1
"21/07/02","00:40",0.0,22.0,93.5,1003.1,322.1,1.1,1.7,322.5,0.00,20.9,23.2,"00:37:04",1
"21/07/02","00:50",0.0,22.0,93.5,1003.6,329.3,1.2,1.8,314.4,0.00,20.9,23.2,"00:46:24",1
"21/07/02","01:00",0.0,21.9,93.6,1003.4,326.9,1.1,1.7,323.2,0.00,20.9,23.2,"00:56:08",1
"21/07/02","01:10",0.0,22.0,93.6,1002.9,311.9,0.8,1.4,310.0,0.00,21.0,23.2,"01:00:56",1
"21/07/02","01:20",0.0,22.0,93.7,1002.9,305.9,0.8,1.6,334.9,0.00,21.0,23.2,"01:10:56",1
"21/07/02","01:30",0.0,21.9,93.8,1003.1,302.4,1.2,1.7,321.4,0.00,20.9,23.1,"01:27:12",1
"21/07/02","01:40",0.0,21.9,93.9,1002.9,306.6,1.0,1.7,329.8,0.00,20.9,23.2,"01:38:08",1
"21/07/02","01:50",0.0,21.9,93.9,1003.1,323.5,0.8,1.3,316.5,0.00,20.9,23.2,"01:49:52",1
"21/07/02","02:00",0.0,22.0,94.0,1002.9,310.9,1.1,1.4,332.0,0.00,21.0,23.2,"01:58:24",1
"21/07/02","02:10",0.0,22.0,94.0,1003.1,325.3,0.6,1.4,293.1,0.00,21.0,23.2,"02:04:48",1
"21/07/02","02:20",0.0,22.1,94.0,1003.1,294.7,0.7,1.3,290.2,0.00,21.1,23.2,"02:11:36",1
"21/07/02","02:30",0.0,22.1,94.1,1003.1,312.0,1.3,2.1,321.0,0.00,21.1,23.2,"02:24:48",1
"21/07/02","02:40",0.0,22.1,94.1,1003.1,286.5,0.8,1.2,276.1,0.00,21.1,23.2,"02:31:20",1
"21/07/02","02:50",0.0,22.1,94.2,1003.1,327.1,1.5,2.0,338.5,0.00,21.2,23.1,"02:49:04",1
"21/07/02","03:00",0.0,22.1,94.2,1002.9,328.0,1.3,2.0,336.3,0.00,21.2,23.0,"02:52:08",1
"21/07/02","03:10",0.0,22.1,94.2,1003.1,309.4,0.8,1.2,326.1,0.00,21.2,22.8,"03:00:08",1
"21/07/02","03:20",0.0,22.1,94.2,1002.9,309.4,1.2,1.6,337.1,0.00,21.2,23.2,"03:12:56",1
"21/07/02","03:30",0.0,22.2,94.3,1002.9,299.3,0.7,1.2,264.1,0.00,21.3,23.0,"03:28:32",1
"21/07/02","03:40",0.0,22.2,94.3,1003.1,316.3,1.2,1.7,322.8,0.00,21.3,22.9,"03:36:00",1
"21/07/02","03:50",0.0,22.2,94.3,1002.9,327.8,0.8,1.4,335.7,0.00,21.3,23.0,"03:49:04",1
"21/07/02","04:00",0.0,22.3,94.3,1002.6,331.8,0.8,1.3,332.1,0.00,21.4,22.9,"03:56:00",1
"21/07/02","04:10",0.0,22.4,94.3,1002.9,326.9,1.1,1.4,335.8,0.00,21.5,22.9,"04:02:16",1
"21/07/02","04:20",0.0,22.4,94.4,1002.9,296.8,0.8,1.2,332.6,0.00,21.5,22.9,"04:11:20",1
"21/07/02","04:30",0.0,22.3,94.4,1002.6,297.1,0.7,1.2,259.8,0.00,21.4,23.2,"04:23:04",1
"21/07/02","04:40",0.0,22.4,94.4,1002.9,313.2,0.3,0.9,319.6,0.00,21.5,23.2,"04:38:32",1
"21/07/02","04:50",0.0,22.4,94.4,1002.6,302.6,0.6,1.0,323.3,0.00,21.5,23.0,"04:45:44",1
"21/07/02","05:00",0.0,22.4,94.4,1002.6,322.8,1.1,1.4,318.9,0.00,21.5,23.2,"04:53:04",1
"21/07/02","05:10",0.2,22.4,94.4,1002.6,308.5,1.0,1.3,324.2,0.00,21.5,23.2,"05:03:20",1
"21/07/02","05:20",0.0,22.4,94.5,1002.6,297.5,0.5,0.9,314.2,0.00,21.5,23.2,"05:18:56",1
"21/07/02","05:30",0.2,22.4,94.5,1002.4,330.2,0.7,1.1,310.2,0.00,21.5,22.8,"05:27:12",1
"21/07/02","05:40",0.0,22.5,94.6,1002.6,315.8,0.8,1.4,337.7,0.00,21.6,23.1,"05:33:44",1
"21/07/02","05:50",0.0,22.4,94.6,1002.9,293.3,0.3,0.9,254.1,0.00,21.5,23.0,"05:40:16",1
"21/07/02","06:00",0.0,22.5,94.6,1002.6,278.1,0.5,0.9,252.7,0.00,21.6,23.0,"05:58:24",1
"21/07/02","06:10",0.0,22.6,94.6,1002.6,299.3,0.6,1.0,317.6,0.00,21.7,23.0,"06:01:44",1
"21/07/02","06:20",0.0,22.9,94.7,1002.6,324.6,0.5,1.2,338.2,0.01,22.0,23.1,"06:14:08",1
"21/07/02","06:30",0.0,22.9,94.6,1002.6,354.5,0.3,0.8,337.4,0.00,22.0,23.1,"06:28:56",1
"21/07/02","06:40",0.0,23.0,94.6,1002.4,319.1,0.3,0.8,339.5,0.00,22.1,23.0,"06:39:20",1
"21/07/02","06:50",0.0,23.1,94.7,1002.6,337.3,0.5,0.9,332.1,0.01,22.2,22.9,"06:40:08",1
"21/07/02","07:00",0.0,23.2,94.7,1002.9,339.4,0.3,0.8,350.9,0.04,22.3,22.9,"06:51:52",1
"21/07/02","07:10",0.0,23.5,94.7,1002.6,332.1,0.5,1.0,341.1,0.08,22.6,23.0,"07:03:28",1
"21/07/02","07:20",0.0,23.9,94.6,1002.6,356.8,0.2,0.9,1.3,0.08,23.0,23.0,"07:19:12",1
"21/07/02","07:30",0.0,24.3,94.6,1002.4,322.9,0.3,1.2,339.4,0.11,23.4,22.9,"07:23:12",1
"21/07/02","07:40",0.0,24.9,94.5,1002.4,190.9,0.1,0.6,160.5,0.12,24.0,23.0,"07:36:32",1
"21/07/02","07:50",0.0,24.5,93.5,1002.6,209.5,0.6,1.4,208.4,0.15,23.4,23.1,"07:49:44",1
"21/07/02","08:00",0.0,24.9,93.9,1002.4,188.4,0.7,1.6,204.2,0.09,23.9,23.3,"07:51:12",1
"21/07/02","08:10",0.0,24.8,93.9,1002.9,226.9,0.8,1.9,244.7,0.11,23.8,22.9,"08:09:20",1
"21/07/02","08:20",0.0,25.3,93.6,1002.6,249.6,0.7,1.6,246.3,0.16,24.2,23.1,"08:15:20",1
"21/07/02","08:30",0.0,26.0,93.3,1002.4,128.3,0.5,1.6,128.8,0.21,24.9,23.1,"08:24:24",1
"21/07/02","08:40",0.0,25.8,92.4,1002.4,110.1,0.6,1.3,130.5,0.16,24.5,23.2,"08:31:28",1
"21/07/02","08:50",0.0,25.6,91.8,1002.2,115.8,0.6,1.4,119.9,0.16,24.2,23.2,"08:46:40",1
"21/07/02","09:00",0.0,26.1,91.6,1002.2,183.8,0.2,1.1,124.9,0.14,24.7,23.3,"08:50:08",1
"21/07/02","09:10",0.0,26.0,91.1,1002.2,229.8,0.5,1.3,137.3,0.17,24.5,23.2,"09:00:32",1
"21/07/02","09:20",0.0,26.3,89.3,1001.9,240.2,0.6,1.7,182.5,0.21,24.4,23.3,"09:19:20",1
"21/07/02","09:30",0.0,26.2,88.7,1001.7,204.0,1.1,2.0,201.9,0.20,24.2,23.2,"09:28:24",1
"21/07/02","09:40",0.0,27.1,86.5,1001.5,190.1,0.7,1.9,176.9,0.29,24.7,23.4,"09:39:52",1
"21/07/02","09:50",0.0,27.4,84.3,1002.2,166.5,1.1,2.4,202.0,0.30,24.6,23.5,"09:41:44",1
"21/07/02","10:00",0.0,27.2,82.5,1001.9,223.5,1.5,2.8,202.4,0.20,24.0,23.7,"09:56:08",1
"21/07/02","10:10",0.0,27.0,82.7,1001.7,213.8,1.2,2.9,226.1,0.13,23.8,23.6,"10:04:32",1
"21/07/02","10:20",0.0,27.3,82.5,1001.7,187.5,1.1,3.2,229.6,0.19,24.1,23.7,"10:12:48",1
"21/07/02","10:30",0.0,27.1,81.1,1002.2,183.9,1.2,2.8,188.0,0.17,23.6,23.6,"10:26:16",1
"21/07/02","10:40",0.0,27.2,81.5,1001.5,202.4,1.0,2.2,232.4,0.13,23.8,23.5,"10:33:36",1
"21/07/02","10:50",0.0,26.9,81.5,1001.5,194.7,1.0,2.5,237.0,0.09,23.5,23.9,"10:49:28",1
"21/07/02","11:00",0.0,26.8,82.0,1001.5,193.5,1.1,2.5,243.4,0.07,23.5,23.6,"10:51:52",1
"21/07/02","11:10",0.0,26.8,82.7,1001.7,189.7,0.8,2.0,225.0,0.08,23.6,23.8,"11:04:16",1
"21/07/02","11:20",0.0,27.0,82.5,1001.5,189.0,0.7,1.9,207.9,0.12,23.8,23.8,"11:16:16",1
"21/07/02","11:30",0.0,27.2,82.3,1001.5,34.4,0.6,1.4,350.1,0.14,24.0,23.7,"11:27:04",1
"21/07/02","11:40",0.0,27.1,81.9,1001.7,341.6,1.1,2.0,1.9,0.12,23.8,23.9,"11:31:44",1
"21/07/02","11:50",0.0,27.0,81.8,1001.5,330.7,1.3,2.2,332.0,0.13,23.7,23.9,"11:42:56",1
"21/07/02","12:00",0.0,27.2,81.9,1001.2,352.4,1.0,2.1,323.0,0.15,23.9,24.0,"11:52:56",1
"21/07/02","12:10",0.0,27.4,81.3,1001.2,337.2,0.7,1.8,347.8,0.14,24.0,24.1,"12:09:04",1
"21/07/02","12:20",0.0,27.4,80.8,1001.5,358.2,0.7,2.0,334.7,0.12,23.8,23.9,"12:12:48",1
"21/07/02","12:30",0.0,27.2,81.4,1001.7,297.0,0.5,1.8,130.3,0.10,23.8,23.8,"12:20:56",1
"21/07/02","12:40",0.0,27.4,82.1,1001.5,36.6,0.3,1.1,332.5,0.14,24.1,24.0,"12:32:08",1
"21/07/02","12:50",0.0,27.4,82.2,1001.2,114.9,0.6,1.3,41.4,0.11,24.1,24.1,"12:41:44",1
"21/07/02","13:00",0.0,26.9,82.9,1001.5,181.6,1.1,2.8,221.0,0.08,23.8,24.2,"12:50:56",1
"21/07/02","13:10",0.0,26.5,84.7,1001.5,183.5,1.1,2.8,212.9,0.03,23.8,24.0,"13:02:48",1
"21/07/02","13:20",0.0,26.6,86.0,1001.5,194.4,0.8,1.8,118.5,0.10,24.1,24.0,"13:11:12",1
"21/07/02","13:30",0.0,26.7,86.6,1001.2,227.6,0.3,1.0,242.9,0.12,24.3,24.2,"13:20:16",1
"21/07/02","13:40",0.0,27.0,87.1,1001.0,10.9,1.0,2.2,338.8,0.20,24.7,24.2,"13:33:44",1
"21/07/02","13:50",0.0,27.4,86.7,1000.8,327.5,0.7,1.4,346.3,0.22,25.0,24.2,"13:46:00",1
"21/07/02","14:00",0.0,27.1,86.2,1000.8,338.4,0.7,1.4,344.1,0.11,24.6,24.2,"13:57:12",1
"21/07/02","14:10",1.0,27.0,86.2,1001.0,305.9,0.6,1.7,341.8,0.09,24.5,24.3,"14:05:20",1
"21/07/02","14:20",2.6,26.7,86.8,1001.0,321.7,1.0,2.4,346.7,0.06,24.4,24.2,"14:15:04",1
"21/07/02","14:30",0.8,26.3,87.7,1000.8,314.9,1.1,1.8,337.8,0.04,24.1,24.3,"14:20:56",1
"21/07/02","14:40",0.2,26.2,88.2,1001.0,264.9,0.6,1.1,330.1,0.05,24.1,24.4,"14:30:16",1
"21/07/02","14:50",0.0,26.0,88.7,1001.0,206.7,0.3,1.0,243.4,0.02,24.0,24.5,"14:44:24",1
"21/07/02","15:00",0.0,26.3,89.2,1001.0,344.3,0.8,1.9,350.5,0.06,24.4,24.5,"14:54:16",1
"21/07/02","15:10",0.0,26.1,89.5,1001.5,343.1,0.3,1.0,341.3,0.01,24.3,24.4,"15:04:48",1
"21/07/02","15:20",0.2,26.1,89.8,1001.5,102.0,0.3,1.7,32.1,0.01,24.3,24.4,"15:19:04",1
"21/07/02","15:30",0.2,25.7,90.2,1001.7,128.5,0.7,2.1,117.6,0.03,24.0,24.6,"15:25:44",1
"21/07/02","15:40",0.2,25.6,90.5,1001.7,109.7,0.5,1.7,152.8,0.04,24.0,24.4,"15:32:32",1
"21/07/02","15:50",0.0,25.6,90.7,1001.7,350.9,0.5,1.0,335.8,0.05,24.0,24.4,"15:46:24",1
"21/07/02","16:00",0.0,25.5,90.9,1001.5,308.9,0.6,1.4,1.8,0.04,23.9,24.5,"15:50:40",1
"21/07/02","16:10",0.0,25.5,91.0,1001.5,273.4,0.5,0.9,323.5,0.03,24.0,24.3,"16:01:28",1
"21/07/02","16:20",0.0,25.5,91.1,1001.5,259.6,0.3,1.2,248.5,0.03,24.0,24.5,"16:19:52",1
"21/07/02","16:30",0.0,25.5,91.1,1001.7,275.4,0.3,0.8,339.3,0.02,24.0,24.6,"16:23:44",1
"21/07/02","16:40",0.0,25.3,91.3,1001.9,6.4,0.3,0.9,34.6,0.01,23.8,24.5,"16:38:08",1
"21/07/02","16:50",0.0,25.1,91.5,1001.7,356.6,0.2,0.8,345.8,0.00,23.7,24.5,"16:44:32",1
"21/07/02","17:00",0.2,24.9,91.5,1001.9,331.4,0.3,1.0,349.6,0.00,23.5,24.5,"16:52:00",1
"21/07/02","17:10",0.2,24.8,91.7,1001.5,295.6,0.3,0.8,308.3,0.00,23.4,24.4,"17:04:16",1
"21/07/02","17:20",0.8,24.7,91.8,1001.7,348.4,0.2,0.9,24.4,0.00,23.3,24.6,"17:16:40",1
"21/07/02","17:30",0.0,24.5,91.9,1001.7,307.2,0.3,1.1,255.9,0.00,23.1,24.2,"17:23:28",1
"21/07/02","17:40",0.0,24.5,92.1,1002.4,347.3,0.2,0.6,359.6,0.00,23.2,24.5,"17:32:16",1
"21/07/02","17:50",0.2,24.6,92.2,1002.2,92.1,0.2,0.5,145.2,0.00,23.3,24.6,"17:45:04",1
"21/07/02","18:00",0.2,24.5,92.3,1001.9,168.0,0.1,0.5,109.5,0.00,23.2,24.6,"17:50:16",1
"21/07/02","18:10",0.0,24.5,92.3,1001.7,167.1,0.1,0.6,214.6,0.00,23.2,24.6,"18:04:08",1
"21/07/02","18:20",0.0,24.5,92.4,1002.2,273.3,0.2,0.9,341.8,0.00,23.2,24.5,"18:19:20",1
"21/07/02","18:30",0.0,24.4,92.5,1001.9,297.6,0.3,0.8,313.6,0.00,23.1,24.4,"18:20:08",1
"21/07/02","18:40",0.0,24.5,92.7,1002.6,318.6,0.5,0.9,339.8,0.00,23.3,24.4,"18:33:44",1
"21/07/02","18:50",0.0,24.6,92.8,1002.6,325.7,0.5,0.9,332.0,0.00,23.4,24.2,"18:48:40",1
"21/07/02","19:00",0.0,24.6,92.8,1002.6,253.7,0.3,0.5,220.9,0.00,23.4,24.4,"18:55:12",1
"21/07/02","19:10",0.0,24.7,93.0,1002.6,318.8,0.6,1.2,339.4,0.00,23.5,24.5,"19:05:52",1
"21/07/02","19:20",0.0,24.7,93.2,1002.9,340.1,1.5,2.5,343.6,0.00,23.6,24.2,"19:12:32",1
"21/07/02","19:30",0.0,24.5,93.2,1002.6,15.9,0.5,1.6,18.8,0.00,23.4,24.4,"19:25:44",1
"21/07/02","19:40",0.0,24.5,93.4,1002.6,163.9,0.5,1.1,151.6,0.00,23.4,24.4,"19:32:32",1
"21/07/02","19:50",0.0,24.5,93.5,1002.9,272.2,0.3,1.0,312.8,0.00,23.4,24.4,"19:49:12",1
"21/07/02","20:00",0.0,24.5,93.6,1002.9,285.2,0.5,1.2,336.0,0.00,23.4,24.4,"19:52:56",1
"21/07/02","20:10",0.0,24.5,93.7,1002.6,171.8,0.5,1.1,130.6,0.00,23.5,24.3,"20:08:40",1
"21/07/02","20:20",0.0,24.5,93.7,1003.1,219.6,0.6,1.2,226.3,0.00,23.5,24.4,"20:16:00",1
"21/07/02","20:30",0.0,24.6,93.9,1003.1,341.2,0.8,1.8,350.5,0.00,23.6,24.2,"20:25:12",1
"21/07/02","20:40",0.0,24.6,93.9,1003.4,312.9,0.5,1.4,343.2,0.00,23.6,24.2,"20:30:40",1
"21/07/02","20:50",0.0,24.5,94.0,1003.6,353.2,0.5,1.1,324.7,0.00,23.5,24.4,"20:40:40",1
"21/07/02","21:00",0.0,24.4,94.1,1003.8,190.2,0.3,1.1,260.1,0.00,23.4,24.3,"20:53:20",1
"21/07/02","21:10",0.0,24.4,94.2,1003.6,224.8,0.5,1.1,188.0,0.00,23.4,24.3,"21:06:32",1
"21/07/02","21:20",0.0,24.5,94.2,1003.8,321.1,0.8,1.7,345.9,0.00,23.5,24.2,"21:12:24",1
"21/07/02","21:30",0.0,24.5,94.3,1003.8,18.0,0.6,1.3,13.4,0.00,23.6,24.1,"21:23:20",1
"21/07/02","21:40",0.0,24.6,94.4,1004.1,354.4,0.5,1.1,57.9,0.00,23.7,24.2,"21:39:36",1
"21/07/02","21:50",0.0,24.6,94.5,1004.3,4.3,1.0,1.9,40.5,0.00,23.7,24.2,"21:47:44",1
"21/07/02","22:00",0.0,24.6,94.5,1004.1,292.0,0.6,1.3,280.3,0.00,23.7,24.2,"21:50:24",1
"21/07/02","22:10",0.0,24.6,94.6,1004.3,90.0,0.2,0.9,144.3,0.00,23.7,24.1,"22:03:36",1
"21/07/02","22:20",0.0,24.6,94.6,1003.8,99.0,0.3,0.6,64.3,0.00,23.7,24.2,"22:12:56",1
"21/07/02","22:30",0.0,24.7,94.7,1004.5,25.2,0.3,1.3,347.7,0.00,23.8,24.1,"22:25:52",1
"21/07/02","22:40",0.0,24.6,94.7,1004.1,1.8,0.6,1.9,330.2,0.00,23.7,24.2,"22:30:32",1
"21/07/02","22:50",0.0,24.6,94.8,1004.3,327.3,0.3,1.3,325.8,0.00,23.8,24.0,"22:49:36",1
"21/07/02","23:00",0.2,24.7,94.8,1004.3,320.6,0.7,1.2,11.1,0.00,23.8,24.1,"22:51:20",1
"21/07/02","23:10",0.0,24.6,94.9,1004.1,301.1,0.3,1.2,350.9,0.00,23.8,24.2,"23:01:04",1
"21/07/02","23:20",0.2,24.6,94.9,1003.8,217.7,0.3,0.9,315.4,0.00,23.8,24.1,"23:16:32",1
"21/07/02","23:30",0.4,24.6,94.9,1003.6,316.3,0.3,1.1,22.2,0.00,23.8,24.1,"23:20:02",1
"21/07/02","23:40",0.4,24.6,95.0,1003.8,336.3,0.8,1.7,347.1,0.00,23.8,24.3,"23:33:12",1
"21/07/02","23:50",1.0,24.6,95.1,1003.4,51.5,0.3,1.1,160.5,0.00,23.8,24.0,"23:49:52",1
"21/07/02","24:00",0.8,24.6,95.1,1003.4,102.8,0.7,1.4,133.7,0.00,23.8,24.3,"23:51:36",1
